Location: Izdebno
(52.6670°N, 16.2170°E)
Time: 18:14:54
(UTC+02:00)

Transit 4A - Pass Details

Date: 24 February 2024
Orbit: 871 x 972 km, 66.8° (Epoch: 21 April)

Event Time Altitude Azimuth Distance (km) Brightness Sun altitude
Rises 02:58:33 0° 236° (SW) 3,595 - -35.1°
Reaches altitude 10° 03:01:10 10° 240° (WSW) 2,638 - -34.7°
Maximum altitude 03:07:10 54° 318° (NW) 1,101 - -34.0°
Exits shadow 03:08:51 42° 7° (N) 1,286 8.8 -33.8°
Drops below altitude 10° 03:13:03 10° 36° (NE) 2,581 10.9 -33.2°
Sets 03:15:36 0° 41° (NE) 3,511 11.9 -32.9°
